Home   Weather   Nãgpur   Past weeks

Flag for India Past Weather in Nãgpur, Maharashtra, India — Yesterday and Last 2 Weeks

Now
64 °F

Haze.


Feels Like: 64 °F
Forecast: 59 / 85 °F
Wind: 2 mph from Northeast

Location: Nagpur Sonegaon

Current Time: Jan 25, 2017 at 1:19:38 am

Latest Report: Jan 25, 2017 at 12:00 am


Visibility: 2 mi

Pressure: 30.09 "Hg

Humidity: 68%

Dew Point: 54 °F

Location of NãgpurLocation

Past Weather in Nãgpur — Graph

°F

Nãgpur Temperature Yesterday

Maximum temperature yesterday: 95 °F (at 2:30 pm)
Minimum temperature yesterday: 61 °F (at 6:00 am)
Average temperature yesterday: 75 °F

High & Low Weather Summary for the Past Weeks

 TemperatureHumidityPressure
High95 °F (Jan 24, 2:30 pm)100% (Jan 10, 5:30 am)30.21 "Hg (Jan 10, 5:30 am)
Low50 °F (Jan 12, 7:30 am)18% (Jan 15, 2:30 pm)29.86 "Hg (Jan 10, 2:00 am)
Average70 °F52%30.04 "Hg
* Reported Jan 9 11:30 pm — Jan 24 11:30 pm, Nãgpur, Weather by CustomWeather, © 2017

Note: Actual official high and low records may vary slightly from our data, if they occured in-between our weather recording intervals... More about our weather records

Advertising

Nãgpur Weather History for the Previous 24 Hours

Scroll right to see more
 ConditionsComfort  
Time TempWeatherWind HumidityBarometerVisibility
11:30 pm
Tue, Jan 24
64 °FHaze.No wind73%30.09 "Hg2 mi
11:00 pm64 °FHaze.No wind68%30.09 "Hg2 mi
9:30 pm66 °FHaze.No wind64%30.09 "Hg2 mi
9:00 pm70 °FHaze.No wind60%30.09 "Hg2 mi
8:30 pm70 °FHaze.No wind60%30.09 "Hg2 mi
8:00 pm72 °FHaze.No wind33%30.07 "Hg2 mi
7:30 pm73 °FHaze.No wind36%30.07 "Hg2 mi
7:00 pm77 °FHaze.2 mph42%30.04 "Hg2 mi
6:30 pm79 °FHaze.2 mph39%30.04 "Hg2 mi
6:00 pm81 °FHaze.3 mph39%30.04 "Hg2 mi
5:30 pm82 °FHaze.5 mph35%30.04 "Hg2 mi
5:00 pm84 °FHaze.5 mph33%30.04 "Hg2 mi
4:30 pm84 °FHaze.5 mph33%30.01 "Hg2 mi
3:30 pm86 °FHaze.6 mph33%30.04 "Hg2 mi
3:00 pm86 °FHaze.7 mph33%30.04 "Hg2 mi
2:30 pm95 °FHaze.5 mph36%30.04 "Hg2 mi
2:00 pm90 °FHaze.6 mph31%30.07 "Hg2 mi
1:30 pm88 °FHaze.6 mph31%30.07 "Hg2 mi
1:00 pm86 °FHaze.6 mph33%30.09 "Hg2 mi
12:30 pm84 °FHaze.6 mph35%30.09 "Hg2 mi
12:00 pm82 °FHaze.5 mph35%30.12 "Hg2 mi
11:30 am82 °FHaze.5 mph35%30.15 "Hg2 mi
11:00 am82 °FHaze.6 mph35%30.15 "Hg2 mi
10:30 am81 °FHaze.5 mph37%30.15 "Hg2 mi
10:00 am77 °FHaze.2 mph42%30.15 "Hg2 mi
9:00 am72 °FHaze.2 mph53%30.15 "Hg2 mi
8:30 am70 °FHaze.2 mph57%30.15 "Hg2 mi
8:00 am66 °FHaze.2 mph64%30.12 "Hg1 mi
7:30 am63 °FHaze.No wind73%30.12 "Hg1 mi
7:00 am63 °FHaze.2 mph68%30.09 "Hg1 mi
6:30 am63 °FHaze.No wind68%30.09 "Hg1 mi
6:00 am61 °FHaze.No wind72%30.07 "Hg1 mi
4:00 am63 °FHaze.No wind68%30.07 "Hg1 mi
3:00 am64 °FHaze.No wind64%30.07 "Hg1 mi
2:00 am70 °FHaze.2 mph53%30.07 "Hg1 mi
Weather by CustomWeather, © 2017

See weather overviewHow to use our weather pages